Home > Weather > Quito > Past weeks

Flag for Ecuador Past Weather in Quito, Ecuador — Yesterday and Last 2 Weeks

Now
48 °F

Partly cloudy.


Feels Like: 47 °F
Forecast: 51 / 76 °F
Wind: 3 mph from South

Location: Latacunga Airport

Current Time: Jul 1, 2016 at 6:53:19 AM

Latest Report: Jul 1, 2016 at 6:00 AM


Visibility: N/A

Pressure: 30.45 "Hg (21.62 "Hg at 2826m altitude)

Humidity: 100%

Dew Point: 48 °F

Location of QuitoLocation

Past Weather in Quito — Graph

°F

Quito Temperature Yesterday

Maximum temperature yesterday: 61 °F (at 2:00 PM)
Minimum temperature yesterday: 48 °F (at 3:00 AM)
Average temperature yesterday: 53 °F

High & Low Weather Summary for the Past Weeks

 TemperatureHumidityPressure
High64 °F (Jun 23, 1:00 PM)100% (Jun 16, 5:00 AM)30.51 "Hg (Jun 16, 5:00 AM)
Low43 °F (Jun 25, 5:00 AM)59% (Jun 17, 4:00 PM)30.33 "Hg (Jun 18, 4:00 PM)
Average54 °F93%30.43 "Hg
* Reported Jun 16 5:00 AM — Jul 1 5:00 AM, Quito, Weather by CustomWeather, © 2016

Note: Actual official high and low records may vary slightly from our data, if they occured in-between our weather recording intervals... More about our weather records

Advertising

Quito Weather History for the Previous 24 Hours

Scroll right to see more
 ConditionsComfort  
Time TempWeatherWind HumidityBarometerVisibility
5:00 AM
Fri, Jul 1
45 °FPassing clouds.1 mph100%30.42 "HgN/A
4:00 AM45 °FPassing clouds.2 mph100%30.39 "HgN/A
3:00 AM50 °FPassing clouds.9 mph100%30.42 "HgN/A
2:00 AM50 °FPassing clouds.12 mph100%30.42 "HgN/A
1:00 AM50 °FPassing clouds.15 mph100%30.45 "HgN/A
12:00 AM52 °FPassing clouds.13 mph100%30.45 "HgN/A
11:00 PM
Thu, Jun 30
52 °FPassing clouds.14 mph100%30.48 "HgN/A
10:00 PM52 °FPassing clouds.15 mph100%30.45 "HgN/A
9:00 PM52 °FPassing clouds.17 mph100%30.45 "HgN/A
8:00 PM52 °FPassing clouds.15 mph100%30.42 "HgN/A
7:00 PM54 °FPassing clouds.13 mph88%30.39 "HgN/A
6:00 PM55 °FPartly sunny.15 mph88%30.36 "HgN/A
5:00 PM59 °FPartly sunny.16 mph72%30.36 "HgN/A
4:00 PM59 °FScattered showers. Partly sunny.18 mph77%30.36 "HgN/A
3:00 PM59 °FScattered showers. Partly sunny.17 mph63%30.36 "HgN/A
2:00 PM61 °FPartly sunny.15 mph63%30.39 "HgN/A
12:00 PM59 °FPartly sunny.20 mph72%30.42 "HgN/A
11:00 AM57 °FPartly sunny.21 mph77%30.45 "HgN/A
10:00 AM55 °FBroken clouds.20 mph82%30.45 "HgN/A
9:00 AM54 °FPartly sunny.21 mph94%30.45 "HgN/A
8:00 AM52 °FPartly sunny.18 mph100%30.45 "HgN/A
7:00 AM50 °FPartly sunny.14 mph100%30.42 "HgN/A
6:00 AM50 °FPassing clouds.13 mph100%30.39 "HgN/A
Weather by CustomWeather, © 2016

See weather overviewHow to use our weather pages